Weather in Auxerre

France     47°47′28″N   3°34′08″E
temp.,
°C
wind,
m/s
gust,
m/s
humid.,
%
clouds,
%
prec.,
mm/h
press.,
hPa
HPBL,
m
21 april, wed
wed2123:00+7ene12861 0.0 101610
02:00+6e11880 0.0 101610
05:00+5ese11890 0.0 101610
08:00+7ssw11891 0.0 101634
11:00+13wnw00703 0.0 1016646
14:00+15ene22574 0.5 10151485
17:00+16ene225611 0.8 10141565
20:00+12ene33782 2.6 101540
22 april, thu
thu2223:00+8ene11895 1.1 101711
02:00+7ne11915 1.1 101811
05:00+5ne22955 0.0 101920
08:00+6nne23945 0.0 102094
11:00+12ne56806 0.0 1021561
14:00+15ne676885 0.1 10211314
17:00+15ne676478 0.1 10211420
20:00+11ne611720 0.1 1023452
23 april, fri
fri2323:00+5ne312800 0.0 1025211
02:00+3ne39865 0.0 1025135
05:00+2ne37875 0.0 1025110
08:00+4ne311770 0.0 1026278
11:00+11ene69600 0.0 1026655
14:00+15ene78525 0.0 10251189
17:00+15ene68560 0.0 10241277
20:00+11ne510740 0.0 1024351
24 april, sat
sat2423:00+6ene311870 0.0 1025183
02:00+4ene33860 0.0 102540
05:00+3ne22820 0.0 102425
08:00+5ne29750 0.0 1024203
11:00+12ene586091 0.0 1023550
14:00+16ene67535 0.0 10221086
17:00+17ene67545 0.0 10211186
20:00+13ene5117548 0.0 1021325
25 april, sun
sun2523:00+8ne41287100 0.0 1023262
02:00+6ne41183100 0.0 1022225
05:00+4ne3880100 0.0 1022149
08:00+5ne4117955 0.0 1021259
11:00+13ene61065100 0.0 1021595
14:00+17ene675798 0.0 1019975
17:00+17ene6762100 0.0 10181076
20:00+13ene61275100 0.0 1017382